Regional Weather Roundup
Issued by NWS Burlington, VT

Home | Current Version | Previous Version | Text Only | Print | Product List | Glossary On
Versions: 1 2 3 4 5 6 7 8 9 10 11 12 13 14 15 16 17 18 19 20 21 22 23 24 25 26 27 28 29 30 31 32 33 34 35 36 37 38 39 40 41 42 43 44 45 46 47 48 49 50
000
ASUS41 KBTV 250530
RWRBTV
VERMONT REGIONAL WEATHER ROUNDUP
NATIONAL WEATHER SERVICE BURLINGTON VT
100 AM EDT WED APR 25 2018

NOTE: "FAIR" INDICATES FEW OR NO CLOUDS BELOW 12,000 FEET WITH NO
SIGNIFICANT WEATHER AND/OR OBSTRUCTIONS TO VISIBILITY.

* THESE REPORTS ARE NOT UNDER NWS QUALITY CONTROL AND/OR DO NOT
  REPORT WEATHER SUCH AS PRECIPITATION AND FOG.

VTZ001>019-250600-
_____VERMONT_____


CITY           SKY/WX    TMP DP  RH WIND       PRES   REMARKS
BURLINGTON     FAIR      59  33  37 S13       30.09F
MONTPELIER     FAIR      53  30  41 S7        30.16F
MORRISVILLE    FAIR      43  34  70 SW3       30.12S
ST. JOHNSBURY*   N/A     56  31  38 MISG      30.12F
LYNDONVILLE*   FAIR      53  29  41 SE9       30.15S
MIDDLEBURY*    FAIR      57  34  42 S12       30.13F
RUTLAND*       FAIR      56  34  43 SE9       30.15S
SPRINGFIELD    FAIR      53  37  54 S6        30.18F
HIGHGATE*      FAIR      59  32  36 S10       30.07F
NEWPORT*       FAIR      52  28  40 S6        30.12S
BENNINGTON     CLOUDY    54  36  50 SE5       30.17F
ISLAND POND*     N/A     41 N/A N/A CALM        N/A
GALLUP MILLS*    N/A     36 N/A N/A MISG        N/A
UNION VILLAGE*   N/A     54 N/A N/A MISG        N/A
MT. MANSFIELD*   N/A     43 N/A N/A SW21G33     N/A

_____LAKE CHAMPLAIN_____


CITY           SKY/WX    TMP DP  RH WIND       PRES   REMARKS
BURTON ISLAND*   N/A     52  36  54 SW14G20     N/A
COLCHESTER RF*   N/A     52  34  50 S21         N/A
DIAMOND ISL*     N/A     59  34  38 S22         N/A

$$

NYZ007-026>031-035-052-083-087-250600-
_____NORTHERN NEW YORK_____


CITY           SKY/WX    TMP DP  RH WIND       PRES   REMARKS
PLATTSBURGH    FAIR      52  31  44 SE3       30.07F
SARANAC LAKE   CLOUDY    44  31  60 CALM      30.08F
MASSENA        CLOUDY    54  41  61 CALM      30.06F
OGDENSBURG*    FAIR      51  41  68 CALM      30.05S
POTSDAM*       CLOUDY    59  34  38 S13       30.05F
STARK FALLS*     N/A     54 N/A N/A S9          N/A
WATERTOWN      CLOUDY    53  40  61 CALM      30.07S
FT DRUM        DRIZZLE   55  36  47 SW3       30.06S
ALBANY         LGT RAIN  54  43  66 S6        30.17F
GLENS FALLS    CLOUDY    56  39  53 S10       30.15F

$$
NHZ002-005-011-250600-
_____NEW HAMPSHIRE_____


CITY           SKY/WX    TMP DP  RH WIND       PRES   REMARKS
LEBANON        FAIR      55  36  48 S17G25    30.15F
KEENE          FAIR      52  38  58 CALM      30.20F
MT WASHINGTON  CLOUDY    34  28  80 SW16        N/A  WCI  23
PLYMOUTH       FAIR      56  32  40 E3        30.17S
WHITEFIELD     FAIR      40  33  76 CALM      30.15R

$$

_____REGIONAL QUEBEC LOCATIONS_____


CITY           SKY/WX    TMP DP  RH WIND       PRES   REMARKS
MONTREAL       CLOUDY    57  39  51 S3        30.04F
QUEBEC CITY    CLOUDY    43  37  81 VRB2      30.06S
SHERBROOKE     CLEAR     43  32  65 VRB2      30.09S

_____REGIONAL ONTARIO LOCATIONS_____


CITY           SKY/WX    TMP DP  RH WIND       PRES   REMARKS
OTTAWA         CLOUDY    54  39  58 S5        30.05R

______KEY______
VSB  - VISIBILITY IN MILES
WCI  - WIND CHILL INDEX
HX   - HEAT INDEX
$$
NNNN




USA.gov is the U.S. government's official web portal to all federal, state and local government web resources and services.